1488240001.02,47553,6.88,72518.3,-5.85,-21.93,-21.23,0,*53
1488240002.24,47554,6.88,72532.8,-5.85,-22.07,-21.43,0,*5C
1488240003.48,47555,6.88,72540.8,-5.87,-22.27,-21.67,0,*5B
1488240004.74,47556,6.88,72532.3,-5.87,-22.47,-21.83,0,*54
1488240005.97,47557,6.88,72534.8,-5.87,-22.73,-22.07,0,*5D
1488240007.23,47558,6.88,72552.3,-5.89,-22.77,-22.07,0,*58
1488240008.49,47559,6.88,72536.0,-5.87,-22.73,-21.97,0,*59
1488240009.74,47560,6.94,72550.8,-5.89,-22.87,-22.21,0,*58
1488240011.0,47561,6.88,72494.8,-5.89,-22.93,-22.21,0,*5C
1488240012.26,47562,6.88,72520.3,-5.89,-23.03,-22.27,0,*51
1488240013.54,47563,6.88,72510.3,-5.89,-23.03,-22.21,0,*56
1488240014.78,47564,6.94,72550.8,-5.91,-23.09,-22.31,0,*53
1488240016.04,47565,6.88,72514.5,-5.89,-23.03,-22.27,0,*56
1488240017.33,47566,6.88,72500.0,-5.93,-23.03,-22.31,0,*59
1488240018.57,47567,6.88,72546.0,-5.91,-23.09,-22.31,0,*50
1488240019.79,47568,6.88,72522.3,-5.91,-22.97,-22.27,0,*5E
1488240021.0,47569,6.88,72526.0,-5.91,-23.09,-22.27,0,*59
1488240022.27,47570,6.88,72534.0,-5.93,-23.13,-22.31,0,*5F
1488240023.48,47571,6.88,72566.5,-5.91,-23.13,-22.27,0,*5B
1488240024.74,47572,6.94,72554.3,-5.93,-23.13,-22.31,0,*5D
1488240025.95,47573,6.88,72526.0,-5.95,-23.13,-22.37,0,*5C
1488240027.22,47574,6.94,72548.0,-5.93,-23.13,-22.31,0,*5B
1488240028.45,47575,6.94,72542.0,-5.95,-23.13,-22.21,0,*5D
1488240029.66,47576,6.94,72542.8,-5.95,-22.87,-21.93,0,*58
1488240030.87,47577,6.88,72530.3,-5.97,-22.83,-21.93,0,*5F
1488240032.07,47578,6.88,72544.8,-5.97,-22.67,-21.77,0,*50
1488240033.28,47579,6.88,72574.3,-5.97,-22.67,-21.77,0,*51
1488240034.53,47580,6.88,72562.0,-5.97,-22.47,-21.57,0,*57
1488240035.78,47581,6.88,72566.5,-5.97,-22.31,-21.57,0,*57
1488240037.03,47582,6.94,72554.5,-5.97,-22.21,-21.53,0,*51
1488240038.27,47583,6.88,72536.8,-5.95,-22.53,-21.57,0,*53
1488240039.48,47584,6.88,72516.5,-5.95,-22.67,-21.73,0,*55
1488240040.71,47585,6.88,72506.0,-5.95,-22.73,-21.73,0,*51
1488240041.91,47586,6.94,72524.5,-5.97,-22.87,-22.03,0,*5F
1488240043.11,47587,6.94,72506.5,-5.97,-22.87,-21.93,0,*54
1488240044.33,47588,6.88,72552.0,-5.95,-22.83,-21.77,0,*57
1488240045.53,47589,6.88,72530.5,-5.97,-22.53,-21.63,0,*5C
1488240046.76,47590,6.88,72494.3,-5.97,-23.03,-21.93,0,*5F
1488240048.0,47591,6.88,72442.8,-5.97,-23.13,-22.17,0,*50
1488240049.25,47592,6.88,72450.5,-5.99,-23.49,-22.41,0,*51
1488240050.51,47593,6.88,72456.8,-5.97,-22.47,-21.27,0,*52
1488240051.76,47594,6.88,72468.5,-5.97,-23.03,-22.21,0,*51
1488240053.04,47595,6.88,72488.5,-5.99,-23.49,-22.21,0,*50
1488240054.29,47596,6.88,72452.8,-6.01,-23.03,-21.57,0,*5D
1488240055.53,47597,6.88,72476.0,-6.01,-21.63,-20.49,0,*56
1488240056.76,47598,6.88,72488.8,-6.01,-18.65,-17.79,0,*52
1488240057.96,47599,6.88,72508.5,-6.01,-17.69,-17.35,0,*58
1488240059.2,47600,6.88,72524.5,-6.01,-17.07,-16.59,0,*58
1488240060.41,47601,6.88,72512.0,-6.01,-18.65,-17.69,0,*50
1488240061.62,47602,6.88,72512.3,-6.01,-20.89,-20.09,0,*58
1488240062.82,47603,6.88,72494.5,-6.01,-22.41,-21.77,0,*57
1488240064.02,47604,6.88,72502.5,-6.01,-22.63,-21.63,0,*55
1488240065.25,47605,6.88,72516.5,-6.01,-22.41,-21.33,0,*51
1488240066.51,47606,6.94,72554.0,-6.07,-22.87,-21.87,0,*51
1488240067.74,47607,6.94,72558.3,-6.01,-22.77,-21.47,0,*55
1488240068.97,47608,6.94,72562.0,-6.05,-22.31,-21.09,0,*56
1488240070.23,47609,6.94,72552.0,-5.99,-22.37,-21.27,0,*5B
1488240071.45,47610,6.94,72590.8,-6.01,-22.41,-21.33,0,*55
1488240072.67,47611,6.88,72558.3,-6.01,-22.57,-21.47,0,*50
1488240073.92,47612,6.88,72538.5,-6.01,-22.21,-21.03,0,*52
1488240075.15,47613,6.88,72578.0,-6.01,-22.07,-20.83,0,*5E
1488240076.42,47614,6.88,72600.5,-5.99,-21.57,-20.35,0,*50
1488240077.65,47615,6.94,72584.3,-5.99,-21.43,-20.09,0,*5B
1488240078.91,47616,6.88,72560.0,-5.99,-22.77,-21.63,0,*51
1488240080.16,47617,6.88,72524.8,-5.99,-23.23,-22.11,0,*56
1488240081.42,47618,6.88,72502.0,-5.99,-23.19,-21.93,0,*59
1488240082.64,47619,6.88,72486.5,-5.99,-22.63,-21.43,0,*59
1488240083.88,47620,6.88,72502.8,-5.99,-21.93,-20.39,0,*53
1488240085.11,47621,6.88,72498.5,-5.99,-22.27,-20.89,0,*55
1488240086.38,47622,6.88,72478.3,-5.97,-22.17,-20.83,0,*51
1488240087.61,47623,6.88,72482.8,-5.97,-22.31,-20.93,0,*55
1488240088.9,47624,6.88,72472.8,-5.93,-22.47,-21.27,0,*59
1488240090.15,47625,6.88,72458.3,-5.95,-22.53,-21.27,0,*5B
1488240091.39,47626,6.94,72460.5,-5.95,-21.23,-20.29,0,*53
1488240092.6,47627,6.94,72438.8,-5.95,-21.63,-20.93,0,*57
1488240093.88,47628,6.88,72458.8,-5.95,-22.17,-21.27,0,*56
1488240095.08,47629,6.88,72442.0,-5.97,-22.87,-21.77,0,*59
1488240096.32,47630,6.88,72446.0,-5.95,-23.19,-21.77,0,*55
1488240097.54,47631,6.88,72476.0,-5.95,-23.43,-21.93,0,*51
1488240098.77,47632,6.88,72448.3,-5.97,-23.49,-22.07,0,*54
1488240100.0,47633,6.94,72448.5,-5.97,-23.49,-21.93,0,*5B
1488240101.24,47634,6.94,72434.8,-5.97,-23.13,-21.23,0,*58
1488240102.47,47635,6.88,72438.0,-5.97,-22.97,-20.83,0,*5F
1488240103.71,47636,6.94,72448.5,-5.95,-21.57,-20.29,0,*51
1488240104.97,47637,6.88,72468.0,-5.95,-22.21,-20.99,0,*59
1488240106.18,47638,6.88,72452.8,-5.97,-22.97,-21.43,0,*5F
1488240107.42,47639,6.88,72502.5,-5.97,-23.43,-21.87,0,*5E
1488240108.68,47640,6.88,72490.8,-5.95,-23.03,-21.57,0,*5B
1488240109.91,47641,6.88,72518.3,-5.95,-23.03,-21.43,0,*5F
1488240111.12,47642,6.88,72544.5,-5.97,-22.97,-21.39,0,*5F
1488240112.36,47643,6.88,72500.8,-5.95,-23.29,-21.63,0,*57
1488240113.58,47644,6.88,72498.5,-5.97,-23.69,-22.03,0,*53
1488240114.83,47645,6.88,72490.0,-5.97,-23.85,-22.21,0,*50
1488240116.06,47646,6.88,72514.5,-5.97,-23.49,-21.73,0,*57
1488240117.28,47647,6.88,72484.8,-5.97,-23.03,-21.63,0,*59
1488240118.52,47648,6.88,72508.8,-5.97,-22.67,-21.23,0,*51
1488240119.74,47649,6.88,72528.3,-5.97,-23.29,-21.73,0,*5E
1488240120.96,47650,6.88,72480.8,-5.95,-23.43,-21.77,0,*5C
1488240122.2,47651,6.88,72490.5,-5.99,-23.75,-22.07,0,*50
1488240123.44,47652,6.94,72522.3,-5.99,-23.69,-22.07,0,*5E
1488240124.7,47653,6.88,72518.0,-6.01,-23.33,-21.67,0,*57
1488240125.98,47654,6.88,72504.5,-5.99,-23.49,-21.67,0,*5F
1488240127.26,47655,6.88,72510.3,-5.99,-23.33,-21.67,0,*53
1488240128.52,47656,6.88,72522.0,-5.99,-23.19,-21.47,0,*5A
1488240129.75,47657,6.88,72524.8,-5.99,-23.09,-21.43,0,*5E
1488240130.97,47658,6.88,72526.0,-5.99,-23.39,-21.77,0,*55
1488240132.17,47659,6.88,72508.3,-5.97,-22.87,-20.69,0,*50
1488240133.42,47660,6.88,72528.8,-5.95,-20.69,-18.31,0,*5C
1488240134.67,47661,6.94,72534.8,-5.99,-19.31,-19.03,0,*56
1488240135.9,47662,6.88,72534.5,-5.99,-18.65,-18.11,0,*57
1488240137.13,47663,6.88,72530.3,-5.97,-18.65,-17.25,0,*50
1488240138.37,47664,6.88,72540.5,-5.97,-17.17,-16.75,0,*59
1488240139.6,47665,6.88,72514.8,-5.97,-18.07,-17.17,0,*53
1488240140.81,47666,6.94,72512.3,-5.97,-19.51,-19.13,0,*58
1488240142.06,47667,6.94,72538.0,-5.99,-19.65,-18.69,0,*5C
1488240143.28,47668,6.88,72548.3,-5.97,-19.07,-18.59,0,*5A
1488240144.53,47669,6.94,72530.8,-5.97,-17.79,-16.13,0,*5C
1488240145.76,47670,6.88,72530.5,-5.97,-17.73,-17.79,0,*53
1488240146.99,47671,6.88,72552.5,-5.99,-17.69,-18.07,0,*51
1488240148.24,47672,6.88,72526.3,-5.99,-18.07,-17.45,0,*5C
1488240149.5,47673,6.88,72538.8,-5.99,-17.17,-16.41,0,*56
1488240150.76,47674,6.88,72554.8,-6.01,-16.27,-16.69,0,*5B
1488240152.01,47675,6.94,72470.8,-5.99,-21.57,-21.47,0,*53
1488240153.22,47676,6.88,72428.3,-6.01,-20.89,-19.75,0,*5A
1488240154.45,47677,6.88,72440.3,-5.99,-19.17,-19.13,0,*54
1488240155.67,47678,6.94,72480.0,-6.01,-21.77,-20.25,0,*5B
1488240156.89,47679,6.88,72500.0,-6.01,-22.41,-20.83,0,*50
1488240158.15,47680,6.88,72496.8,-5.99,-23.03,-21.47,0,*5A
1488240159.43,47681,6.88,72530.0,-5.99,-23.19,-21.57,0,*51
1488240160.66,47682,6.88,72514.5,-6.01,-23.49,-21.93,0,*5D
1488240161.91,47683,6.88,72518.8,-5.99,-23.85,-22.11,0,*57
1488240163.11,47684,6.88,72532.8,-6.01,-23.89,-22.27,0,*5B
1488240164.37,47685,6.88,72538.3,-6.01,-23.99,-22.21,0,*5D
1488240165.6,47686,6.88,72532.5,-6.05,-23.95,-22.27,0,*50
1488240166.86,47687,6.88,72562.3,-6.01,-23.65,-21.83,0,*57
1488240168.12,47688,6.88,72546.0,-6.01,-23.49,-21.67,0,*5C
1488240169.35,47689,6.88,72532.0,-6.01,-23.53,-21.77,0,*57
1488240170.58,47690,6.88,72520.3,-6.01,-23.53,-21.77,0,*5F
1488240171.81,47691,6.88,72532.0,-6.01,-23.49,-21.63,0,*50
1488240173.04,47692,6.88,72502.8,-6.01,-23.23,-21.63,0,*5F
1488240174.3,47693,6.88,72498.3,-6.01,-23.49,-21.67,0,*56
1488240175.53,47694,6.88,72504.5,-6.01,-23.75,-21.97,0,*51
1488240176.76,47695,6.88,72518.0,-6.01,-23.65,-21.93,0,*55
1488240178.04,47696,6.88,72546.3,-5.99,-23.49,-21.67,0,*51
1488240179.29,47697,6.88,72506.8,-5.99,-23.39,-21.57,0,*54
1488240180.52,47698,6.88,72512.3,-6.01,-23.53,-21.63,0,*52
1488240181.75,47699,6.88,72522.0,-5.99,-23.75,-21.93,0,*5A
1488240183.01,47700,6.88,72516.5,-6.01,-23.99,-22.21,0,*51
1488240184.29,47701,6.88,72532.3,-5.99,-23.99,-21.97,0,*5C
1488240185.54,47702,6.94,72542.3,-6.01,-23.33,-21.57,0,*51
1488240186.76,47703,6.88,72558.8,-6.01,-23.69,-21.77,0,*5D
1488240188.01,47704,6.88,72538.3,-6.01,-23.69,-21.83,0,*51
1488240189.22,47705,6.88,72516.5,-6.01,-24.05,-22.11,0,*55
1488240190.47,47706,6.88,72526.0,-6.01,-24.15,-22.21,0,*54
1488240191.72,47707,6.88,72536.5,-6.01,-24.15,-22.21,0,*55
1488240192.98,47708,6.94,72576.5,-6.01,-23.53,-21.57,0,*5D
1488240194.21,47709,6.88,72538.5,-6.01,-22.41,-20.99,0,*5D
1488240195.46,47710,6.88,72512.0,-6.01,-23.19,-21.33,0,*58
1488240196.69,47711,6.88,72526.8,-6.01,-23.49,-21.63,0,*59
1488240197.94,47712,6.88,72550.0,-5.99,-23.69,-21.77,0,*5F
1488240199.19,47713,6.88,72534.0,-5.99,-23.89,-21.83,0,*5B
1488240200.42,47714,6.88,72524.3,-6.01,-23.89,-21.83,0,*5E
1488240201.68,47715,6.88,72528.8,-5.99,-23.89,-21.83,0,*5D
1488240202.88,47716,6.88,72538.8,-6.01,-23.89,-21.77,0,*57
1488240204.11,47717,6.88,72528.3,-6.01,-23.99,-21.77,0,*57
1488240205.37,47718,6.88,72508.8,-5.99,-23.89,-21.67,0,*5A
1488240206.63,47719,6.88,72510.0,-6.01,-23.99,-21.83,0,*52
1488240207.88,47720,6.88,72532.5,-5.99,-24.15,-21.93,0,*58
1488240209.11,47721,6.94,72530.3,-6.01,-24.15,-21.93,0,*5B
1488240210.35,47722,6.88,72528.3,-6.01,-24.21,-22.07,0,*51
1488240211.58,47723,6.88,72516.5,-6.01,-24.35,-22.21,0,*51
1488240212.79,47724,6.88,72518.3,-6.01,-24.35,-22.11,0,*55
1488240214.02,47725,6.88,72540.8,-6.01,-24.35,-21.97,0,*59
1488240215.25,47726,6.88,72530.8,-6.01,-23.49,-21.13,0,*5A
1488240216.5,47727,6.88,72528.5,-6.05,-22.77,-20.15,0,*54
1488240217.76,47728,6.88,72548.8,-5.99,-23.03,-19.75,0,*53
1488240218.97,47729,6.88,72534.3,-5.97,-21.93,-18.65,0,*57
1488240220.22,47730,6.88,72526.3,-5.97,-20.19,-17.03,0,*53
1488240221.5,47731,6.88,72546.8,-5.99,-17.45,-16.17,0,*55
1488240222.75,47732,6.88,72522.5,-5.99,-18.35,-18.25,0,*51
1488240224.03,47733,6.88,72532.3,-5.99,-20.19,-19.65,0,*50
1488240225.28,47734,6.88,72530.3,-5.99,-19.91,-19.41,0,*5B
1488240226.51,47735,6.88,72538.0,-5.99,-19.75,-18.11,0,*54
1488240227.77,47736,6.88,72512.3,-5.99,-19.57,-18.21,0,*54
1488240229.02,47737,6.88,72484.5,-5.99,-22.87,-21.33,0,*59
1488240230.28,47738,6.88,72512.5,-5.99,-24.83,-22.53,0,*51
1488240231.51,47739,6.88,72532.5,-6.01,-24.87,-22.53,0,*56
1488240232.75,47740,6.88,72522.0,-6.01,-24.51,-21.67,0,*57
1488240233.99,47741,6.88,72526.3,-6.01,-23.23,-20.89,0,*55
1488240235.21,47742,6.88,72532.5,-6.01,-24.15,-21.77,0,*54
1488240236.42,47743,6.88,72548.0,-6.05,-23.89,-21.39,0,*59
1488240237.66,47744,6.88,72526.5,-6.05,-24.35,-22.17,0,*51
1488240238.89,47745,6.88,72532.8,-6.05,-24.87,-22.41,0,*5A
1488240240.15,47746,6.88,72560.8,-6.05,-24.87,-22.31,0,*5E
1488240241.39,47747,6.88,72560.3,-6.05,-24.77,-22.31,0,*50
1488240242.61,47748,6.88,72562.8,-6.05,-24.87,-22.41,0,*57
1488240243.87,47749,6.88,72590.3,-6.05,-24.87,-22.17,0,*55
1488240245.15,47750,6.88,72588.0,-6.07,-24.71,-22.03,0,*53
1488240246.44,47751,6.88,72558.0,-6.07,-23.65,-21.23,0,*51
1488240247.68,47752,6.88,72534.0,-6.05,-24.05,-21.67,0,*51
1488240248.91,47753,6.88,72564.0,-6.05,-23.89,-21.53,0,*54
1488240250.14,47754,6.88,72536.0,-6.07,-24.61,-22.07,0,*52
1488240251.35,47755,6.88,72490.8,-6.01,-24.61,-21.93,0,*5B
1488240252.59,47756,6.88,72458.8,-6.01,-24.71,-22.11,0,*50
1488240253.85,47757,6.88,72460.8,-6.01,-24.83,-21.83,0,*54
1488240255.06,47758,6.88,72466.8,-6.01,-24.31,-21.63,0,*5C
1488240256.32,47759,6.88,72504.5,-5.99,-24.31,-21.57,0,*58
1488240257.54,47760,6.88,72520.8,-6.01,-24.15,-21.43,0,*53
1488240258.78,47761,6.88,72532.5,-6.01,-24.31,-21.57,0,*51
1488240260.01,47762,6.88,72546.0,-6.01,-24.21,-21.43,0,*56
1488240261.24,47763,6.88,72534.5,-6.01,-23.33,-20.69,0,*5A
1488240262.46,47764,6.88,72522.3,-5.97,-22.87,-20.15,0,*54
1488240263.71,47765,6.88,72520.8,-5.97,-23.49,-20.79,0,*5C
1488240264.97,47766,6.88,72530.3,-5.97,-23.85,-20.79,0,*5F
1488240266.2,47767,6.88,72532.3,-5.97,-23.29,-20.29,0,*5D
1488240267.42,47768,6.88,72498.3,-5.97,-23.65,-21.09,0,*59
1488240268.68,47769,6.88,72518.5,-5.97,-24.25,-21.53,0,*54
1488240269.94,47770,6.88,72508.8,-5.97,-24.41,-21.57,0,*5A
1488240271.15,47771,6.88,72538.5,-5.95,-24.61,-21.73,0,*5D
1488240272.39,47772,6.88,72560.8,-5.95,-24.41,-21.63,0,*5D
1488240273.62,47773,6.88,72510.3,-5.95,-24.15,-21.43,0,*5F
1488240274.87,47774,6.88,72500.0,-5.95,-24.83,-21.77,0,*50
1488240276.07,47775,6.88,72526.3,-5.97,-25.09,-22.03,0,*50
1488240277.27,47776,6.88,72502.8,-5.97,-24.97,-21.93,0,*5F
1488240278.47,47777,6.88,72526.0,-5.97,-25.09,-21.93,0,*58
1488240279.7,47778,6.88,72524.5,-5.97,-24.83,-21.73,0,*5A
1488240280.9,47779,6.88,72506.3,-5.97,-25.09,-22.03,0,*5C
1488240282.1,47780,6.88,72534.0,-5.97,-24.93,-21.77,0,*58
1488240283.31,47781,6.88,72512.8,-5.95,-25.13,-21.93,0,*58
1488240284.51,47782,6.88,72540.3,-5.97,-24.93,-21.63,0,*5F
1488240285.76,47783,6.88,72542.0,-5.97,-24.67,-21.53,0,*56
1488240287.02,47784,6.88,72556.8,-5.97,-24.67,-21.53,0,*51
1488240288.27,47785,6.88,72546.8,-5.95,-24.47,-21.23,0,*57
1488240289.48,47786,6.88,72548.5,-5.95,-24.31,-21.09,0,*5D
1488240290.73,47787,6.88,72552.8,-5.95,-24.41,-21.09,0,*5B
1488240291.96,47788,6.88,72548.5,-5.95,-23.19,-19.91,0,*54
1488240293.2,47789,6.88,72568.5,-5.95,-23.99,-20.69,0,*50
1488240294.5,47790,6.88,72560.3,-5.93,-24.25,-20.83,0,*5A
1488240295.76,47791,6.88,72560.5,-5.93,-23.69,-20.29,0,*54
1488240296.99,47792,6.88,72566.0,-5.93,-24.77,-21.43,0,*52
1488240298.24,47793,6.88,72560.0,-5.91,-24.51,-21.23,0,*53
1488240299.49,47794,6.88,72566.5,-5.91,-24.21,-20.73,0,*57
1488240300.7,47795,6.88,72570.0,-5.91,-23.59,-20.09,0,*53
1488240301.96,47796,6.88,72546.5,-5.91,-23.29,-19.85,0,*59
1488240303.19,47797,6.88,72562.8,-5.87,-23.99,-20.69,0,*5C
1488240304.43,47798,6.88,72554.0,-5.89,-24.97,-21.47,0,*59
1488240305.68,47799,6.88,72556.3,-5.89,-25.03,-21.47,0,*54
1488240306.94,47800,6.88,72560.8,-5.89,-24.97,-21.27,0,*51
1488240308.23,47801,6.88,72566.0,-5.89,-24.83,-21.33,0,*50
1488240309.44,47802,6.88,72560.0,-5.87,-24.57,-21.13,0,*56
1488240310.7,47803,6.88,72560.8,-5.87,-24.87,-21.53,0,*5E
1488240311.95,47804,6.88,72550.0,-5.89,-25.03,-21.47,0,*5F
1488240313.21,47805,6.88,72574.5,-5.89,-25.03,-21.47,0,*5E
1488240314.45,47806,6.88,72570.5,-5.89,-25.13,-21.47,0,*5C
1488240315.67,47807,6.88,72540.5,-5.89,-25.35,-21.63,0,*5F
1488240316.93,47808,6.88,72568.8,-5.89,-25.35,-21.67,0,*54
1488240318.16,47809,6.88,72554.5,-5.91,-25.35,-21.67,0,*5C
1488240319.39,47810,6.88,72556.0,-5.91,-25.23,-21.57,0,*50
1488240320.59,47811,6.88,72570.8,-5.91,-25.19,-21.47,0,*59
1488240321.87,47812,6.88,72572.5,-5.93,-25.29,-21.57,0,*5A
1488240323.11,47813,6.88,72580.8,-5.93,-25.13,-21.43,0,*57
1488240324.36,47814,6.88,72566.0,-5.93,-25.45,-21.63,0,*51
1488240325.59,47815,6.88,72586.8,-5.93,-25.23,-21.39,0,*5F
1488240326.83,47816,6.88,72568.8,-5.93,-25.13,-21.43,0,*52
1488240328.06,47817,6.88,72574.8,-5.93,-24.97,-21.13,0,*5B
1488240329.32,47818,6.88,72570.0,-5.93,-24.77,-20.99,0,*59
1488240330.58,47819,6.88,72580.8,-5.91,-24.71,-20.89,0,*5D
1488240331.82,47820,6.88,72572.5,-5.91,-24.11,-20.29,0,*5B
1488240333.07,47821,6.88,72578.5,-5.91,-24.71,-20.63,0,*52
1488240334.3,47822,6.88,72596.3,-5.91,-24.57,-20.79,0,*5E
1488240335.54,47823,6.88,72572.5,-5.91,-24.11,-20.39,0,*59
1488240336.77,47824,6.88,72576.5,-5.91,-24.51,-20.63,0,*55
1488240338.04,47825,6.88,72580.0,-5.93,-24.41,-20.29,0,*59
1488240339.3,47826,6.88,72574.5,-5.89,-24.21,-20.25,0,*5B
1488240340.55,47827,6.88,72590.0,-5.89,-24.35,-20.39,0,*52
1488240341.82,47828,6.88,72590.0,-5.89,-24.21,-20.05,0,*57
1488240343.05,47829,6.88,72598.8,-5.87,-23.99,-20.09,0,*50
1488240344.33,47830,6.88,72608.3,-5.89,-23.69,-19.65,0,*59
1488240345.56,47831,6.88,72600.3,-5.87,-22.07,-19.31,0,*5E
1488240346.8,47832,6.88,72600.3,-5.87,-20.59,-19.41,0,*53
1488240348.06,47833,6.88,72594.3,-5.85,-21.87,-19.37,0,*53
1488240349.33,47834,6.88,72572.3,-5.85,-22.73,-19.27,0,*5D
1488240350.56,47835,6.88,72578.5,-5.85,-22.87,-18.99,0,*53
1488240351.81,47836,6.88,72562.0,-5.85,-21.57,-17.87,0,*5E
1488240353.02,47837,6.88,72568.3,-5.83,-22.57,-18.83,0,*51
1488240354.22,47838,6.88,72570.5,-5.83,-22.57,-18.83,0,*5E
1488240355.48,47839,6.88,72578.0,-5.85,-21.13,-18.31,0,*53
1488240356.72,47840,6.88,72550.3,-5.83,-24.47,-20.19,0,*5E
1488240357.98,47841,6.88,72568.8,-5.83,-22.17,-18.93,0,*55
1488240359.22,47842,6.88,72568.0,-5.83,-23.65,-20.05,0,*56
1488240360.48,47843,6.88,72566.8,-5.83,-24.11,-20.49,0,*5B
1488240361.71,47844,6.88,72562.5,-5.85,-24.97,-20.93,0,*53
1488240362.95,47845,6.88,72562.5,-5.87,-24.87,-20.73,0,*5F
1488240364.21,47846,6.88,72558.8,-5.85,-24.51,-20.35,0,*57
1488240365.45,47847,6.88,72546.8,-5.85,-24.31,-20.29,0,*5D
1488240366.73,47848,6.88,72546.3,-5.85,-23.99,-19.61,0,*51
1488240368.01,47849,6.88,72570.3,-5.85,-23.69,-19.41,0,*5D
1488240369.29,47850,6.88,72570.5,-5.85,-23.53,-19.41,0,*5C
1488240370.54,47851,6.88,72576.8,-5.79,-23.23,-18.89,0,*5C
1488240371.76,47852,6.88,72578.3,-5.83,-23.33,-19.07,0,*5C
1488240372.99,47853,6.88,72592.8,-5.83,-23.29,-19.07,0,*56
1488240374.21,47854,6.88,72582.8,-5.83,-22.07,-17.79,0,*5B
1488240375.47,47855,6.88,72590.0,-5.77,-21.97,-17.83,0,*5E
1488240376.7,47856,6.88,72586.8,-5.75,-22.31,-18.21,0,*57
1488240377.95,47857,6.88,72590.3,-5.73,-22.87,-18.59,0,*52
1488240379.19,47858,6.88,72594.8,-5.73,-22.93,-18.73,0,*50
1488240380.42,47859,6.88,72588.5,-5.73,-22.93,-18.73,0,*51
1488240381.69,47860,6.88,72586.5,-5.73,-21.67,-17.35,0,*5E
1488240382.92,47861,6.88,72584.5,-5.69,-22.67,-18.45,0,*5F
1488240384.17,47862,6.88,72570.0,-5.69,-23.33,-19.07,0,*5B
1488240385.42,47863,6.88,72560.5,-5.67,-23.49,-19.23,0,*5F
1488240386.67,47864,6.88,72548.3,-5.65,-23.13,-18.89,0,*54
1488240387.93,47865,6.88,72544.3,-5.67,-23.65,-19.27,0,*53
1488240389.21,47866,6.88,72554.8,-5.65,-23.65,-19.27,0,*52
1488240390.5,47867,6.88,72544.0,-5.65,-23.95,-19.57,0,*5B
1488240391.76,47868,6.88,72518.3,-5.65,-24.05,-19.81,0,*51
1488240393.02,47869,6.88,72532.5,-5.65,-23.75,-19.41,0,*5C
1488240394.25,47870,6.88,72514.0,-5.65,-22.83,-18.49,0,*55
1488240395.48,47871,6.88,72512.5,-5.63,-22.73,-18.41,0,*55
1488240396.72,47872,6.88,72530.8,-5.63,-22.77,-18.69,0,*58
1488240398.01,47873,6.88,72538.0,-5.61,-22.77,-18.55,0,*54
1488240399.24,47874,6.88,72562.8,-5.57,-22.83,-18.49,0,*50
1488240400.52,47875,6.88,72566.3,-5.57,-23.19,-18.93,0,*54
1488240401.78,47876,6.88,72562.5,-5.57,-22.87,-18.55,0,*5B
1488240403.01,47877,6.88,72588.3,-5.55,-22.67,-18.35,0,*50
1488240404.23,47878,6.88,72574.0,-5.55,-22.67,-18.59,0,*55
1488240405.47,47879,6.88,72576.8,-5.57,-22.57,-18.49,0,*54
1488240406.7,47880,6.88,72574.3,-5.55,-21.87,-17.69,0,*53
1488240407.94,47881,6.88,72580.8,-5.53,-22.67,-18.45,0,*58
1488240409.15,47882,6.88,72582.8,-5.51,-22.27,-18.11,0,*5C
1488240410.43,47883,6.88,72576.8,-5.49,-23.53,-19.23,0,*56
1488240411.69,47884,6.88,72582.8,-5.49,-23.59,-19.31,0,*58
1488240412.97,47885,6.88,72582.3,-5.49,-24.11,-20.15,0,*5E
1488240414.2,47886,6.88,72562.0,-5.51,-24.51,-20.39,0,*5E
1488240415.42,47887,6.88,72550.3,-5.51,-24.35,-20.25,0,*50
1488240416.65,47888,6.88,72552.0,-5.51,-24.57,-20.35,0,*5A
1488240417.91,47889,6.88,72546.5,-5.51,-24.11,-19.81,0,*5C
1488240419.17,47890,6.88,72574.5,-5.53,-23.89,-19.65,0,*5A
1488240420.41,47891,6.88,72548.5,-5.51,-24.05,-19.85,0,*54
1488240421.69,47892,6.88,72534.3,-5.53,-24.15,-19.85,0,*54
1488240422.96,47893,6.88,72536.0,-5.53,-24.47,-20.15,0,*51
1488240424.2,47894,6.88,72540.0,-5.53,-23.75,-19.51,0,*5A
1488240425.49,47895,6.88,72536.0,-5.53,-23.65,-19.41,0,*5B
1488240426.77,47896,6.88,72538.8,-5.53,-24.15,-19.85,0,*50
1488240428.04,47897,6.88,72532.8,-5.53,-24.11,-19.95,0,*54
1488240429.31,47898,6.88,72528.5,-5.53,-24.25,-19.99,0,*50
1488240430.6,47899,6.88,72532.8,-5.53,-24.25,-20.15,0,*5F
1488240431.87,47900,6.88,72514.3,-5.53,-24.41,-20.29,0,*53
1488240433.08,47901,6.88,72494.0,-5.55,-24.05,-19.95,0,*59
1488240434.33,47902,6.88,72476.5,-5.57,-24.51,-20.39,0,*55
1488240435.58,47903,6.88,72480.5,-5.57,-24.51,-20.39,0,*54
1488240436.84,47904,6.88,72462.3,-5.57,-24.61,-20.49,0,*57
1488240438.12,47905,6.88,72430.5,-5.55,-24.71,-20.49,0,*55
1488240439.39,47906,6.88,72442.3,-5.57,-24.77,-20.49,0,*52
1488240440.64,47907,6.88,72438.8,-5.57,-24.97,-20.79,0,*5E
1488240441.87,47908,6.88,72426.3,-5.57,-25.09,-20.93,0,*53
1488240443.14,47909,6.88,72398.0,-5.61,-25.13,-21.03,0,*54
1488240444.4,47910,6.88,72378.8,-5.63,-25.03,-20.99,0,*5D
1488240445.67,47911,6.88,72388.3,-5.61,-24.83,-20.69,0,*58
1488240446.91,47912,6.88,72418.0,-5.63,-24.41,-20.25,0,*5F
1488240448.21,47913,6.88,72448.5,-5.65,-24.71,-20.49,0,*51
1488240449.42,47914,6.88,72440.3,-5.63,-23.09,-19.03,0,*5C
1488240450.7,47915,6.88,72470.0,-5.61,-22.77,-18.59,0,*59
1488240451.97,47916,6.88,72464.0,-5.63,-22.47,-18.31,0,*55
1488240453.2,47917,6.88,72484.8,-5.61,-22.87,-18.73,0,*5C
1488240454.43,47918,6.88,72496.0,-5.63,-22.63,-18.55,0,*5F
1488240455.67,47919,6.88,72518.0,-5.57,-22.53,-18.41,0,*5F
1488240456.92,47920,6.88,72496.0,-5.57,-22.73,-18.65,0,*51
1488240458.12,47921,6.88,72520.3,-5.55,-22.83,-18.79,0,*50
1488240459.35,47922,6.88,72520.0,-5.57,-22.83,-18.83,0,*54
1488240460.59,47923,6.88,72506.5,-5.55,-22.77,-18.73,0,*53
1488240461.82,47924,6.88,72510.8,-5.55,-22.77,-18.73,0,*54
1488240463.06,47925,6.88,72520.3,-5.55,-21.97,-17.87,0,*5C
1488240464.33,47926,6.88,72504.3,-5.53,-22.37,-18.31,0,*52
1488240465.55,47927,6.88,72536.5,-5.53,-21.43,-17.31,0,*5C
1488240466.78,47928,6.88,72546.3,-5.51,-19.81,-15.71,0,*52
1488240468.05,47929,6.88,72540.8,-5.45,-19.41,-15.25,0,*5B
1488240469.31,47930,6.88,72550.0,-5.43,-18.93,-14.75,0,*5F
1488240470.58,47931,6.88,72540.5,-5.39,-19.23,-14.97,0,*55
1488240471.78,47932,6.88,72550.5,-5.35,-18.79,-14.15,0,*5E
1488240473.02,47933,6.88,72560.5,-5.31,-18.83,-14.37,0,*5E
1488240474.26,47934,6.88,72554.5,-5.29,-18.73,-14.75,0,*59
1488240475.5,47935,6.88,72552.8,-5.27,-17.87,-14.15,0,*54
1488240476.73,47936,6.88,72556.8,-5.17,-18.31,-14.33,0,*52
1488240477.94,47937,6.88,72546.3,-5.17,-19.75,-15.11,0,*53
1488240479.19,47938,6.88,72536.8,-5.13,-20.35,-15.35,0,*50
1488240480.45,47939,6.88,72528.5,-5.11,-22.17,-16.93,0,*5E
1488240481.69,47940,6.88,72528.8,-5.11,-20.59,-15.63,0,*54
1488240482.92,47941,6.88,72512.5,-5.11,-19.99,-15.07,0,*51
1488240484.15,47942,6.88,72512.8,-5.09,-20.73,-15.89,0,*53
1488240485.38,47943,6.88,72492.5,-5.07,-21.63,-16.59,0,*52
1488240486.59,47944,6.88,72484.0,-5.09,-21.47,-16.55,0,*51
1488240487.81,47945,6.88,72480.5,-5.09,-19.81,-15.67,0,*53
1488240489.07,47946,6.88,72500.3,-5.11,-18.41,-14.93,0,*5E
1488240490.33,47947,6.88,72504.3,-5.11,-17.25,-14.19,0,*50
1488240491.58,47948,6.88,72522.5,-5.11,-15.89,-13.43,0,*53
1488240492.85,47949,6.88,72530.5,-5.11,-15.43,-13.01,0,*52
1488240494.08,47950,6.88,72536.3,-5.11,-15.49,-13.07,0,*56
1488240495.33,47951,6.88,72508.0,-5.11,-15.43,-13.47,0,*59
1488240496.58,47952,6.88,72502.0,-5.11,-16.93,-14.93,0,*5A
1488240497.85,47953,6.88,72540.5,-5.11,-18.93,-15.29,0,*55
1488240499.12,47954,6.88,72510.5,-5.17,-19.27,-15.85,0,*5C
1488240500.32,47955,6.88,72486.3,-5.17,-20.29,-16.75,0,*55
1488240501.55,47956,6.88,72494.5,-5.17,-21.77,-18.59,0,*5C
1488240502.8,47957,6.81,72506.3,-5.21,-24.47,-20.53,0,*5F
1488240504.04,47958,6.88,72486.3,-5.21,-24.51,-20.53,0,*57
1488240505.27,47959,6.88,72498.3,-5.25,-24.51,-20.39,0,*5E